Regional Weather Roundup
Issued by NWS Charleston, SC

Current Version | Previous Version | Graphics & Text | Print | Product List | Glossary On
Versions: 1 2 3 4 5 6 7 8 9 10 11 12 13 14 15 16 17 18 19 20 21 22 23 24 25 26 27 28 29 30 31 32 33 34 35 36 37 38 39 40 41 42 43 44 45 46 47 48 49 50
000 ASUS42 KCHS 291027 RWRCHS REGIONAL WEATHER ROUNDUP NATIONAL WEATHER SERVICE CHARLESTON SC 600 AM EDT FRI MAY 29 2015 NOTE: "FAIR" INDICATES FEW OR NO CLOUDS BELOW 12,000 FEET WITH NO SIGNIFICANT WEATHER AND/OR OBSTRUCTIONS TO VISIBILITY. NOT ALL STATIONS ARE QUALITY CONTROLLED BY THE NATIONAL WEATHER SERVICE. USE DATA WITH CAUTION...ESPECIALLY DEWPOINT OBSERVATIONS. SCZ027-030-031-034>040-042>050-291100- ...SOUTHEAST SOUTH CAROLINA... CITY SKY/WX TMP DP RH WIND PRES REMARKS N CHARLESTON CLEAR 63 61 93 N5 30.16R WATERFRONT PAR N/A 72 67 84 VRB3 30.12F MOUNT PLEASANT LGT RAIN 63 63 100 CALM 30.17R JOHNS ISLAND SUNNY 64 63 94 CALM 30.17R PINOPOLIS N/A 68 64 88 CALM 30.08S MONCKS CORNER FAIR 61 59 94 CALM 30.17S SUMMERVILLE FAIR 59 59 100 CALM 30.18R BEAUFORT MCAS CLEAR 68 65 90 CALM 30.15S BEAUFORT ARPT FAIR 66 66 100 CALM 30.14S HILTON HEAD IS NOT AVBL WALTERBORO SUNNY 55 55 100 CALM 30.17S ALLENDALE FAIR 63 63 100 CALM 30.16S ...SOUTHERN MIDLANDS AND PEE DEE... CITY SKY/WX TMP DP RH WIND PRES REMARKS GEORGETOWN NOT AVBL KINGSTREE NOT AVBL ORANGEBURG CLEAR 61 59 93 E3 30.18R BARNWELL FAIR 64 63 94 CALM 30.18R AIKEN FAIR 63 61 94 CALM 30.22R MANNING FAIR 57 54 88 N3 30.19R COLUMBIA PTCLDY 67 62 84 SE3 30.17R SUMTER CLEAR 63 61 92 NE5 30.18R FLORENCE CLOUDY 66 63 90 N3 30.19R MYRTLE BEACH CLEAR 66 61 82 N7 30.20R N MYRTLE BEACH CLEAR 63 61 93 N3 30.18R $$ GAZ063-065-086>088-099>101-113>116-118-119-134>141-150-291100- ...SOUTHEAST GEORGIA... CITY SKY/WX TMP DP RH WIND PRES REMARKS SAVANNAH ARPT PTCLDY 67 63 87 E5 30.14R HUNTER AAF CLEAR 67 66 96 CALM 30.12R FORT STEWART CLEAR 63 61 94 CALM 30.12R STATESBORO CLEAR 61 32 33 CALM 30.15R SYLVANIA SUNNY 64 63 97 CALM 30.17R CLAXTON FAIR 57 57 100 CALM 30.15R ...CSRA...CENTRAL AND FAR SOUTHEAST GEORGIA... CITY SKY/WX TMP DP RH WIND PRES REMARKS THOMSON CLEAR 67 67 98 CALM 30.22R AUGUSTA-BUSH CLEAR 64 62 93 CALM 30.16R AUGUSTA-DANIEL CLEAR 68 62 81 SE6 30.17S SWAINSBORO FAIR N/A N/A N/A E3 30.16R VIDALIA CLEAR 64 63 94 CALM 30.15R EASTMAN PTSUNNY 62 62 100 CALM 30.18R HAZLEHURST FAIR 66 66 100 CALM 30.13R ALMA CLEAR 63 61 93 NE3 30.12S WAYCROSS CLEAR 64 64 100 CALM 30.13R JESUP FAIR 64 63 94 CALM 30.14R BAXLEY FAIR 63 61 94 CALM 30.13R BRUNSWICK N/A 63 61 94 CALM 30.13R SAINT SIMONS NOT AVBL $$ SCZ027-028-034-036>038-045-046-048>050-GAZ119-141-291100- ...LAKE AND SUPPLEMENTAL COASTAL OBSERVATIONS... STATION/POSITION TIME TEMP WIND PRES WAVE SWELL AIR SEA DIR/SP/G HT/PER HT/PER/DIR (UTC) (F) (DEG/KT/KT) (MB) (FT/S) (FT/S/D) UPR LAKE MARION NOT AVBL WINYAH BAY 0945 65 320/ 2 1020.0S LAKE MURRAY 0900 70 130/ 5/ 9 1021.0S ACE BASIN NERRS NOT AVBL FORT PULASKI 0900 75 79 100/ 7/ 10 1020.7F SAPELO ISLAND 1000 69 70/ 3 1020.0S $$ ANZ835-935-AMZ111-154-330-350-352-354-370-450-454-472-291100- ...C-MAN AND BUOY OBSERVATIONS... STATION/POSITION TIME TEMP WIND PRES WAVE SWELL AIR SEA DIR/SP/G HT/PER HT/PER/DIR (UTC) (F) (DEG/KT/KT) (MB) (FT/S) (FT/S/D) BUOY 41004 0950 76 78 70/ 10/ 12 1020.3F 4/ 9 3/ 9 BUOY 41008 0950 77 78 100/ 12/ 14 1019.9S 3/ 8 3/120/ 8 FOLLY BEACH CMAN 1000 75 90/ 7/ 8 1021.2R CAPERS NEARSHORE 0908 75 110/ 6/ 10 1020.8F FRIPP NEARSHORE NOT AVBL STATION/POSITION TIME TEMP WIND PRES WAVE SWELL AIR SEA DIR/SP/G HT/PER HT/PER/DIR (UTC) (F) (DEG/KT/KT) (MB) (FT/S) (FT/S/D) 5E ST. MARYS GA 0921 79 N/A 3/ 8 FRYING PAN BUOY 0950 76 76 50/ 10/ 12 1022.1F 4/ 9 3/110/ 9 BUOY 41025 0950 76 76 120/ 4/ 8 1023.1 4/ 9 3/ 90/ 9 CAPE LOOKOUT NC 1000 72 50/ 5/ 5 1022.8R BUOY 41002 0950 74 74 80/ 14/ 17 1020.6F 5/ 8 3/100/ 8 BUOY 41010 0920 77 81 70/ 10/ 14 1018.5R ST AUGUSTINE FL 1000 76 78 90/ 13/ 14 1019.9R $$

USA.gov is the U.S. government's official web portal to all federal, state and local government web resources and services.